Location: Castelbiague
(43.0361°N, 0.9246°E)
Time: 07:53:54
(UTC+00:00)

Cosmos 1864 Rocket - Pass Details

Date: 17 June 2021
Orbit: 950 x 998 km, 82.9° (Epoch: 01 August)

Event Time Altitude Azimuth Distance (km) Brightness Sun altitude
Rises 21:48:35 0° 352° (N) 3,672 8.8 -17.2°
Reaches altitude 10° 21:51:07 10° 353° (N) 2,714 7.9 -17.5°
Maximum altitude 21:57:20 86° 83° (E) 967 4.4 -18.0°
Enters shadow 22:00:45 28° 171° (S) 1,693 5.2 -18.3°
